Hourly Data Report for May 04, 2012

All times are specified in Local Standard Time (LST). Add 1 hour to adjust for Daylight Saving Time where and when it is observed.

YARMOUTH A
NOVA SCOTIA

43°49'37.000" N
66°05'17.000" W
42.90 m
8206495
71603
YQI

Download Data

Hourly Data (May 2012)
Hourly Data Report for May 4, 2012
Temp Definition
°C
Dew Point Temp Definition
°C
Rel Hum Definition
%
Wind Dir Definition
10's deg

Wind Spd Definition
km/h
Visibility Definition
km
Stn Press Definition
kPa
Hmdx Definition


Wind Chill Definition


Weather Definition


TIME
00:00 Legend Double Dagger 6.1 5.2 94 32 15 10.0 101.36     LegendNANA
01:00 Legend Double Dagger 5.6 5.0 96 31 15 10.0 101.35     LegendNANA
02:00 Legend Double Dagger 5.5 4.9 96 34 15 10.0 101.32     Mostly Cloudy
03:00 Legend Double Dagger 5.0 4.6 97 32 13 10.0 101.27     LegendNANA
04:00 Legend Double Dagger 5.5 5.1 97 1 9 10.0 101.22     LegendNANA
05:00 Legend Double Dagger 4.9 4.8 99 28 12 10.0 101.28     Cloudy
06:00 Legend Double Dagger 5.7 5.4 98 29 16 10.0 101.29     LegendNANA
07:00 Legend Double Dagger 7.5 6.8 95 32 12 10.0 101.31     LegendNANA
08:00 Legend Double Dagger 8.9 7.8 93 0 6 10.0 101.32     Cloudy
09:00 Legend Double Dagger 10.4 8.0 85 8 8 10.0 101.27     LegendNANA
10:00 Legend Double Dagger 11.6 7.9 78 10 9 10.0 101.24     LegendNANA
11:00 Legend Double Dagger 10.2 7.8 85 25 12 10.0 101.27     Cloudy
12:00 Legend Double Dagger 10.8 6.6 75 20 16 10.0 101.25     LegendNANA
13:00 Legend Double Dagger 8.9 5.8 81 19 21 10.0 101.22     LegendNANA
14:00 Legend Double Dagger 9.0 5.4 78 21 18 10.0 101.19     Cloudy
15:00 Legend Double Dagger 9.5 6.6 82 18 17 10.0 101.22     LegendNANA
16:00 Legend Double Dagger 9.2 5.8 79 19 20 10.0 101.22     LegendNANA
17:00 Legend Double Dagger 9.4 6.0 79 19 18 10.0 101.20     Mostly Cloudy
18:00 Legend Double Dagger 7.7 5.5 86 18 17 10.0 101.20     LegendNANA
19:00 Legend Double Dagger 6.6 5.2 91 19 16 10.0 101.20     LegendNANA
20:00 Legend Double Dagger 5.6 4.7 94 17 11 10.0 101.22     Cloudy
21:00 Legend Double Dagger 5.3 4.4 94 15 6 10.0 101.25     LegendNANA
22:00 Legend Double Dagger 4.5 4.1 97 22 6 10.0 101.20     LegendNANA
23:00 Legend Double Dagger 5.0 4.6 97 15 9 10.0 101.14     Mainly Clear

Notes on Data Quality.

Legend

  • E = Estimated
  • M = Missing
  • NA = Not Available
  • ‡ = Partner data that is not subject to review by the National Climate Archives
Date modified: